PST,Max TemperatureF,Mean TemperatureF,Min TemperatureF,Max Dew PointF,MeanDew PointF,Min DewpointF,Max Humidity, Mean Humidity, Min Humidity, Max Sea Level PressureIn, Mean Sea Level PressureIn, Min Sea Level PressureIn, Max VisibilityMiles, Mean VisibilityMiles, Min VisibilityMiles, Max Wind SpeedMPH, Mean Wind SpeedMPH, Max Gust SpeedMPH,PrecipitationIn, CloudCover, Events, WindDirDegrees
2012-2-1,46,44,41,41,39,36,93,85,71,30.47,30.08,29.87,10,9,0,12,5,18,0.27,7,Fog-Rain,335
2012-2-2,48,42,37,36,33,30,93,74,53,30.48,30.39,30.26,10,10,10,8,5,,0.00,2,,61
2012-2-3,57,46,35,34,26,22,82,48,28,30.26,30.16,30.10,10,10,10,10,2,,0.00,0,,136
2012-2-4,57,50,42,27,24,21,45,38,30,30.21,30.18,30.13,10,10,10,12,5,16,0.00,0,,119
2012-2-5,53,46,39,35,28,22,79,53,37,30.25,30.20,30.15,10,10,10,9,6,,0.00,0,,68
2012-2-6,57,46,36,34,25,19,83,46,25,30.13,30.03,29.94,10,10,10,8,3,,0.00,0,,78
2012-2-7,59,48,37,24,22,21,53,34,25,30.02,29.92,29.87,10,10,10,12,4,,0.00,1,,139
2012-2-8,50,46,42,45,39,27,83,75,43,30.28,30.17,30.03,10,10,10,17,8,26,0.02,7,Rain,144
2012-2-9,48,47,46,45,42,39,90,81,71,30.29,30.19,30.06,10,10,8,12,8,16,0.39,8,Rain,125
2012-2-10,55,50,45,46,41,37,87,75,62,30.04,29.99,29.93,10,10,9,17,8,24,0.07,8,Rain,139
2012-2-11,46,45,44,42,39,37,90,78,71,30.16,30.12,30.05,10,10,10,16,12,23,0.00,8,,168
2012-2-12,46,44,42,40,37,36,92,80,68,30.13,30.01,29.91,10,10,4,10,6,,0.02,8,Rain,170
2012-2-13,43,42,41,40,39,38,92,89,82,30.07,30.01,29.94,10,8,1,9,4,,0.18,8,Rain,320
2012-2-14,42,39,35,39,36,32,89,83,76,30.21,29.99,29.90,10,10,9,14,9,20,0.01,7,Rain,165
2012-2-15,44,38,33,37,35,31,100,87,73,30.39,30.31,30.21,10,6,0,7,3,,0.00,6,Fog,179
2012-2-16,44,42,39,41,37,32,93,83,73,30.30,30.24,30.20,10,9,4,14,7,16,0.03,7,Rain,163
2012-2-17,48,44,41,43,40,37,93,85,77,30.26,30.04,29.82,10,7,0,23,9,33,0.40,7,Fog-Rain,157
2012-2-18,44,42,39,40,37,34,89,83,76,30.05,29.93,29.85,10,10,4,31,19,43,0.23,8,Rain,183
2012-2-19,43,40,36,37,34,30,93,81,61,30.10,30.05,29.92,10,9,4,13,5,23,0.22,7,Rain,151
2012-2-20,46,40,35,44,36,28,93,82,65,30.00,29.96,29.87,10,9,2,12,7,,0.14,8,Rain,146
2012-2-21,50,48,46,46,45,44,96,89,82,30.07,30.03,29.97,10,8,2,18,9,29,0.83,8,Rain,188
2012-2-22,48,45,41,45,37,30,93,75,54,30.32,30.07,29.94,10,8,1,20,11,31,0.06,5,Rain,298
2012-2-23,44,42,39,36,34,32,81,76,65,30.40,30.34,30.27,10,10,10,10,7,,0.00,7,Rain,166
2012-2-24,44,42,39,40,36,33,89,81,70,30.27,29.89,29.55,10,10,9,22,13,29,0.18,8,Rain,168
2012-2-25,42,38,35,37,34,30,93,83,67,30.18,29.89,29.56,10,10,3,17,9,29,0.12,7,Rain-Snow,179
2012-2-26,39,36,32,31,27,21,87,72,47,30.20,30.17,30.14,10,10,10,10,5,,0.00,5,,5
2012-2-27,41,34,28,26,23,20,75,63,49,30.22,30.14,29.98,10,10,10,8,4,,0.00,0,,11
2012-2-28,44,38,33,32,28,19,89,71,40,29.96,29.64,29.46,10,8,2,21,9,29,0.25,7,Rain-Snow,138
2012-2-29,39,36,33,36,32,28,93,86,75,29.78,29.59,29.50,10,7,1,26,14,36,0.25,8,Rain-Snow,173